Clarksville, TN

8:56 PM CDT on March 28, 2017 (GMT -0500)
Outlaw

Weather History for KCKV - December, 2010

Change the Weather History Date:

Tuesday, December 7, 2010

  Actual Average Record
Temperature  
Mean Temperature 24 °F 40 °F  
Max Temperature 30 °F 50 °F 72 °F (1980)
Min Temperature 17 °F 31 °F 8 °F (1977)
Degree Days  
Heating Degree Days 41    
Month to date heating degree days 226  
Since 1 July heating degree days 881  
Cooling Degree Days 0    
Month to date cooling degree days 0  
Year to date cooling degree days 1953  
Moisture  
Dew Point 13 °F    
Average Humidity 65    
Maximum Humidity 84    
Minimum Humidity 46    
Precipitation  
Precipitation 0.00 in 0.19 in 2.20 in (1957)
Month to date precipitation T 1.29  
Year to date precipitation 38.48 46.44  
Sea Level Pressure  
Sea Level Pressure 30.23 in    
Wind  
Wind Speed 6 mph (NNW)    
Max Wind Speed 14 mph    
Max Gust Speed 17 mph    
Visibility 10 miles    
Events      
T = Trace of Precipitation, MM = Missing Value Source: NWS Daily Summary

Daily Weather History Graph

Daily Weather History Graph

Search for Another Location

Airport or City:

Trip Planner

Search our weather history database for the weather conditions in past years. The results will help you decide how hot, cold, wet, or windy it might be!

Date:

Astronomy

Dec. 07, 2010 Rise Set
Actual Time 6:48 AM CST 4:33 PM CST
Civil Twilight 6:19 AM CST 5:02 PM CST
Nautical Twilight 5:47 AM CST 5:34 PM CST
Astronomical Twilight 5:16 AM CST 6:05 PM CST
Moon 8:33 AM CST (12/7) 6:32 PM CST (12/7)
Length of Visible Light 10h 42m
Length of Day
9h 45m
Waxing Crescent, 5% of the Moon is Illuminated
Dec 7
Waxing Crescent
Dec 13
First Quarter
Dec 21
Full
Dec 27
Last Quarter
Jan 4
New

Hourly Weather History & Observations

Time (CST) Temp. Windchill Dew Point Humidity Pressure Visibility Wind Dir Wind Speed Gust Speed Precip Events Conditions
12:52 AM 17.1 °F - 12.9 °F 84% 30.16 in 10.0 mi Calm Calm - N/A   Clear
1:52 AM 21.0 °F 11.4 °F 15.1 °F 78% 30.16 in 10.0 mi NW 8.1 mph - N/A   Clear
2:49 AM 21.2 °F 10.1 °F 15.8 °F 80% 30.15 in 10.0 mi NW 10.4 mph - N/A   Mostly Cloudy
2:52 AM 21.9 °F 11.7 °F 15.1 °F 75% 30.17 in 10.0 mi NW 9.2 mph - N/A   Mostly Cloudy
3:52 AM 21.9 °F 12.5 °F 16.0 °F 78% 30.17 in 10.0 mi NW 8.1 mph - N/A   Overcast
4:52 AM 21.9 °F 12.5 °F 16.0 °F 78% 30.18 in 10.0 mi NW 8.1 mph - N/A   Overcast
5:52 AM 23.0 °F 13.1 °F 15.1 °F 72% 30.18 in 10.0 mi NNW 9.2 mph - N/A   Overcast
6:52 AM 21.9 °F 11.7 °F 15.1 °F 75% 30.20 in 10.0 mi NW 9.2 mph - N/A   Overcast
7:52 AM 21.9 °F 12.5 °F 14.0 °F 72% 30.23 in 9.0 mi North 8.1 mph - N/A   Mostly Cloudy
8:52 AM 23.0 °F 13.1 °F 12.9 °F 65% 30.25 in 10.0 mi North 9.2 mph - N/A   Overcast
9:43 AM 23.0 °F 13.1 °F 12.2 °F 63% 30.23 in 10.0 mi North 9.2 mph - N/A   Scattered Clouds
9:52 AM 24.1 °F 13.1 °F 12.0 °F 60% 30.25 in 10.0 mi North 11.5 mph - N/A   Partly Cloudy
10:52 AM 26.1 °F 20.5 °F 10.9 °F 53% 30.25 in 10.0 mi Variable 4.6 mph - N/A   Clear
11:52 AM 26.1 °F - 10.0 °F 51% 30.24 in 10.0 mi Calm Calm - N/A   Clear
12:52 PM 28.0 °F 20.8 °F 10.0 °F 47% 30.22 in 10.0 mi North 6.9 mph - N/A   Clear
1:52 PM 28.0 °F 22.8 °F 10.0 °F 47% 30.21 in 10.0 mi Variable 4.6 mph - N/A   Clear
2:52 PM 28.9 °F 19.8 °F 10.0 °F 45% 30.22 in 10.0 mi NW 10.4 mph - N/A   Clear
3:52 PM 28.0 °F 20.8 °F 10.9 °F 49% 30.23 in 10.0 mi West 6.9 mph - N/A   Clear
4:52 PM 25.0 °F 18.1 °F 10.9 °F 55% 30.24 in 10.0 mi NNW 5.8 mph - N/A   Clear
5:52 PM 24.1 °F 18.2 °F 10.9 °F 57% 30.24 in 10.0 mi North 4.6 mph - N/A   Clear
6:52 PM 21.9 °F 15.7 °F 10.9 °F 63% 30.26 in 10.0 mi North 4.6 mph - N/A   Clear
7:52 PM 21.9 °F 17.2 °F 12.0 °F 66% 30.27 in 10.0 mi North 3.5 mph - N/A   Clear
8:52 PM 19.0 °F 12.3 °F 10.9 °F 71% 30.28 in 10.0 mi North 4.6 mph - N/A   Clear
9:52 PM 21.0 °F - 12.0 °F 68% 30.29 in 10.0 mi Calm Calm - N/A   Clear
10:52 PM 19.9 °F - 14.0 °F 78% 30.29 in 10.0 mi Calm Calm - N/A   Clear
11:52 PM 18.0 °F 11.1 °F 12.9 °F 81% 30.30 in 10.0 mi West 4.6 mph - N/A   Clear